station,date_time,longitude_east,latitude_north,depth,sw_sal,sw_sal_result_value_qualifier,sea_water_temperature,sea_water_temperature_result_value_qualifier,sea_water_pressure,sea_water_pressure_result_value_qualifier,KD_PAR,KD_PAR_result_value_qualifier
CH5-2,2017-02-06T12:00:00Z,-79.54,54.26,7.14,21.63,,-1.05,,, NC,, NC
CH5-2,2017-02-06T12:10:00Z,-79.54,54.26,7.14,21.38,,-1.04,,, NC,, NC
CH5-2,2017-02-06T12:20:00Z,-79.54,54.26,7.14,21.27,,-1.03,,, NC,, NC
CH5-2,2017-02-06T12:30:00Z,-79.54,54.26,7.14,21.23,,-1.03,,, NC,, NC
CH5-2,2017-02-06T12:40:00Z,-79.54,54.26,7.14,21.20,,-1.03,,, NC,, NC
CH5-2,2017-02-06T12:50:00Z,-79.54,54.26,7.14,21.18,,-1.03,,, NC,, NC
CH5-2,2017-02-06T13:00:00Z,-79.54,54.26,7.14,21.09,,-1.02,,, NC,, NC
CH5-2,2017-02-06T13:10:00Z,-79.54,54.26,7.14,20.94,,-1.02,,, NC,, NC
CH5-2,2017-02-06T13:20:00Z,-79.54,54.26,7.14,20.94,,-1.02,,, NC,, NC
CH5-2,2017-02-06T13:30:00Z,-79.54,54.26,7.14,20.93,,-1.02,,, NC,, NC
CH5-2,2017-02-06T13:40:00Z,-79.54,54.26,7.14,20.89,,-1.02,,, NC,, NC
CH5-2,2017-02-06T13:50:00Z,-79.54,54.26,7.14,20.83,,-1.02,,, NC,, NC
CH5-2,2017-02-06T14:00:00Z,-79.54,54.26,7.14,20.77,,-1.01,,, NC,, NC
CH5-2,2017-02-06T14:10:00Z,-79.54,54.26,7.14,20.74,,-1.01,,, NC,, NC
CH5-2,2017-02-06T14:20:00Z,-79.54,54.26,7.14,20.71,,-1.01,,, NC,, NC
CH5-2,2017-02-06T14:30:00Z,-79.54,54.26,7.14,20.69,,-1.01,,, NC,, NC
CH5-2,2017-02-06T14:40:00Z,-79.54,54.26,7.14,20.70,,-1.01,,, NC,, NC
CH5-2,2017-02-06T14:50:00Z,-79.54,54.26,7.14,20.68,,-1.01,,, NC,, NC
CH5-2,2017-02-06T15:00:00Z,-79.54,54.26,7.14,20.67,,-1.01,,, NC,, NC
CH5-2,2017-02-06T15:10:00Z,-79.54,54.26,7.14,20.63,,-1.01,,, NC,, NC
CH5-2,2017-02-06T15:20:00Z,-79.54,54.26,7.14,20.62,,-1.01,,, NC,, NC
CH5-2,2017-02-06T15:30:00Z,-79.54,54.26,7.14,20.64,,-1.01,,, NC,, NC
CH5-2,2017-02-06T15:40:00Z,-79.54,54.26,7.14,20.64,,-1.01,,, NC,, NC
CH5-2,2017-02-06T15:50:00Z,-79.54,54.26,7.14,20.69,,-1.02,,, NC,, NC
CH5-2,2017-02-06T16:00:00Z,-79.54,54.26,7.14,20.85,,-1.02,,, NC,, NC
CH5-2,2017-02-06T16:10:00Z,-79.54,54.26,7.14,21.39,,-1.04,,, NC,, NC
CH5-2,2017-02-06T16:20:00Z,-79.54,54.26,7.14,21.60,,-1.05,,, NC,, NC
CH5-2,2017-02-06T16:30:00Z,-79.54,54.26,7.14,21.09,,-1.05,,, NC,, NC
CH5-2,2017-02-06T16:40:00Z,-79.54,54.26,7.14,21.76,,-1.05,,, NC,, NC
CH5-2,2017-02-06T16:50:00Z,-79.54,54.26,7.14,21.35,,-1.05,,, NC,, NC
CH5-2,2017-02-06T17:00:00Z,-79.54,54.26,7.14,21.82,,-1.05,,, NC,, NC
CH5-2,2017-02-06T17:10:00Z,-79.54,54.26,7.14,22.14,,-1.06,,, NC,, NC
CH5-2,2017-02-06T17:20:00Z,-79.54,54.26,7.14,22.27,,-1.06,,, NC,, NC
CH5-2,2017-02-06T17:30:00Z,-79.54,54.26,7.14,22.21,,-1.06,,, NC,, NC
CH5-2,2017-02-06T17:40:00Z,-79.54,54.26,7.14,22.13,,-1.05,,, NC,, NC
CH5-2,2017-02-06T17:50:00Z,-79.54,54.26,7.14,22.05,,-1.05,,, NC,, NC
CH5-2,2017-02-06T18:00:00Z,-79.54,54.26,7.14,22.17,,-1.06,,, NC,, NC
CH5-2,2017-02-06T18:10:00Z,-79.54,54.26,7.14,22.29,,-1.06,,, NC,, NC
CH5-2,2017-02-06T18:20:00Z,-79.54,54.26,7.14,22.59,,-1.08,,, NC,, NC
CH5-2,2017-02-06T18:30:00Z,-79.54,54.26,7.14,22.70,,-1.08,,, NC,, NC
CH5-2,2017-02-06T18:40:00Z,-79.54,54.26,7.14,22.91,,-1.09,,, NC,, NC
CH5-2,2017-02-06T18:50:00Z,-79.54,54.26,7.14,22.98,,-1.09,,, NC,, NC
CH5-2,2017-02-06T19:00:00Z,-79.54,54.26,7.14,23.02,,-1.10,,, NC,, NC
CH5-2,2017-02-06T19:10:00Z,-79.54,54.26,7.14,23.07,,-1.10,,, NC,, NC
CH5-2,2017-02-06T19:20:00Z,-79.54,54.26,7.14,23.17,,-1.10,,, NC,, NC
CH5-2,2017-02-06T19:30:00Z,-79.54,54.26,7.14,23.23,,-1.10,,, NC,, NC
CH5-2,2017-02-06T19:40:00Z,-79.54,54.26,7.14,23.34,,-1.10,,, NC,, NC
CH5-2,2017-02-06T19:50:00Z,-79.54,54.26,7.14,23.36,,-1.10,,, NC,, NC
CH5-2,2017-02-06T20:00:00Z,-79.54,54.26,7.14,23.37,,-1.10,,, NC,, NC
CH5-2,2017-02-06T20:10:00Z,-79.54,54.26,7.14,23.41,,-1.10,,, NC,, NC
CH5-2,2017-02-06T20:20:00Z,-79.54,54.26,7.14,23.44,,-1.10,,, NC,, NC
CH5-2,2017-02-06T20:30:00Z,-79.54,54.26,7.14,23.43,,-1.10,,, NC,, NC
CH5-2,2017-02-06T20:40:00Z,-79.54,54.26,7.14,23.45,,-1.10,,, NC,, NC
CH5-2,2017-02-06T20:50:00Z,-79.54,54.26,7.14,23.45,,-1.10,,, NC,, NC
CH5-2,2017-02-06T21:00:00Z,-79.54,54.26,7.14,23.45,,-1.10,,, NC,, NC
CH5-2,2017-02-06T21:10:00Z,-79.54,54.26,7.14,23.44,,-1.10,,, NC,, NC
CH5-2,2017-02-06T21:20:00Z,-79.54,54.26,7.14,23.43,,-1.10,,, NC,, NC
CH5-2,2017-02-06T21:30:00Z,-79.54,54.26,7.14,23.43,,-1.10,,, NC,, NC
CH5-2,2017-02-06T21:40:00Z,-79.54,54.26,7.14,23.23,,-1.10,,, NC,, NC
CH5-2,2017-02-06T21:50:00Z,-79.54,54.26,7.14,23.00,,-1.09,,, NC,, NC
CH5-2,2017-02-06T22:00:00Z,-79.54,54.26,7.14,22.79,,-1.09,,, NC,, NC
CH5-2,2017-02-06T22:10:00Z,-79.54,54.26,7.14,21.91,,-1.05,,, NC,, NC
CH5-2,2017-02-06T22:20:00Z,-79.54,54.26,7.14,21.67,,-1.04,,, NC,, NC
CH5-2,2017-02-06T22:30:00Z,-79.54,54.26,7.14,21.47,,-1.03,,, NC,, NC
CH5-2,2017-02-06T22:40:00Z,-79.54,54.26,7.14,21.50,,-1.03,,, NC,, NC
CH5-2,2017-02-06T22:50:00Z,-79.54,54.26,7.14,21.42,,-1.03,,, NC,, NC
CH5-2,2017-02-06T23:00:00Z,-79.54,54.26,7.14,21.43,,-1.03,,, NC,, NC
CH5-2,2017-02-06T23:10:00Z,-79.54,54.26,7.14,21.49,,-1.04,,, NC,, NC
CH5-2,2017-02-06T23:20:00Z,-79.54,54.26,7.14,21.64,,-1.04,,, NC,, NC
CH5-2,2017-02-06T23:30:00Z,-79.54,54.26,7.14,21.72,,-1.05,,, NC,, NC
CH5-2,2017-02-06T23:40:00Z,-79.54,54.26,7.14,21.80,,-1.04,,, NC,, NC
CH5-2,2017-02-06T23:50:00Z,-79.54,54.26,7.14,21.85,,-1.05,,, NC,, NC
CH5-2,2017-02-07T00:00:00Z,-79.54,54.26,7.14,21.88,,-1.05,,, NC,, NC
CH5-2,2017-02-07T00:10:00Z,-79.54,54.26,7.14,21.83,,-1.04,,, NC,, NC
CH5-2,2017-02-07T00:20:00Z,-79.54,54.26,7.14,22.08,,-1.06,,, NC,, NC
CH5-2,2017-02-07T00:30:00Z,-79.54,54.26,7.14,22.04,,-1.05,,, NC,, NC
CH5-2,2017-02-07T00:40:00Z,-79.54,54.26,7.14,21.80,,-1.04,,, NC,, NC
CH5-2,2017-02-07T00:50:00Z,-79.54,54.26,7.14,21.61,,-1.03,,, NC,, NC
CH5-2,2017-02-07T01:00:00Z,-79.54,54.26,7.14,21.54,,-1.03,,, NC,, NC
CH5-2,2017-02-07T01:10:00Z,-79.54,54.26,7.14,20.81,,-1.02,,, NC,, NC
CH5-2,2017-02-07T01:20:00Z,-79.54,54.26,7.14,20.40,,-1.00,,, NC,, NC
CH5-2,2017-02-07T01:30:00Z,-79.54,54.26,7.14,20.39,,-1.00,,, NC,, NC
CH5-2,2017-02-07T01:40:00Z,-79.54,54.26,7.14,20.39,,-1.00,,, NC,, NC
CH5-2,2017-02-07T01:50:00Z,-79.54,54.26,7.14,20.37,,-1.00,,, NC,, NC
CH5-2,2017-02-07T02:00:00Z,-79.54,54.26,7.14,20.34,,-1.00,,, NC,, NC
CH5-2,2017-02-07T02:10:00Z,-79.54,54.26,7.14,20.27,,-1.00,,, NC,, NC
CH5-2,2017-02-07T02:20:00Z,-79.54,54.26,7.14,20.24,,-0.99,,, NC,, NC
CH5-2,2017-02-07T02:30:00Z,-79.54,54.26,7.14,20.22,,-0.99,,, NC,, NC
CH5-2,2017-02-07T02:40:00Z,-79.54,54.26,7.14,20.20,,-0.99,,, NC,, NC
CH5-2,2017-02-07T02:50:00Z,-79.54,54.26,7.14,20.17,,-0.99,,, NC,, NC
CH5-2,2017-02-07T03:00:00Z,-79.54,54.26,7.14,20.15,,-0.99,,, NC,, NC
CH5-2,2017-02-07T03:10:00Z,-79.54,54.26,7.14,20.18,,-0.99,,, NC,, NC
CH5-2,2017-02-07T03:20:00Z,-79.54,54.26,7.14,20.29,,-1.00,,, NC,, NC
CH5-2,2017-02-07T03:30:00Z,-79.54,54.26,7.14,20.75,,-1.02,,, NC,, NC
CH5-2,2017-02-07T03:40:00Z,-79.54,54.26,7.14,20.51,,-1.01,,, NC,, NC
CH5-2,2017-02-07T03:50:00Z,-79.54,54.26,7.14,20.48,,-1.01,,, NC,, NC
CH5-2,2017-02-07T04:00:00Z,-79.54,54.26,7.14,20.38,,-1.01,,, NC,, NC
CH5-2,2017-02-07T04:10:00Z,-79.54,54.26,7.14,20.45,,-1.01,,, NC,, NC
CH5-2,2017-02-07T04:20:00Z,-79.54,54.26,7.14,20.52,,-1.01,,, NC,, NC
CH5-2,2017-02-07T04:30:00Z,-79.54,54.26,7.14,20.62,,-1.02,,, NC,, NC
CH5-2,2017-02-07T04:40:00Z,-79.54,54.26,7.14,19.68,,-1.02,,, NC,, NC
CH5-2,2017-02-07T04:50:00Z,-79.54,54.26,7.14,20.00,,-1.02,,, NC,, NC
CH5-2,2017-02-07T05:00:00Z,-79.54,54.26,7.14,19.83,,-1.03,,, NC,, NC
CH5-2,2017-02-07T05:10:00Z,-79.54,54.26,7.14,21.84,,-1.05,,, NC,, NC
CH5-2,2017-02-07T05:20:00Z,-79.54,54.26,7.14,22.64,,-1.08,,, NC,, NC
CH5-2,2017-02-07T05:30:00Z,-79.54,54.26,7.14,22.40,,-1.07,,, NC,, NC
CH5-2,2017-02-07T05:40:00Z,-79.54,54.26,7.14,22.09,,-1.06,,, NC,, NC
CH5-2,2017-02-07T05:50:00Z,-79.54,54.26,7.14,22.10,,-1.06,,, NC,, NC
CH5-2,2017-02-07T06:00:00Z,-79.54,54.26,7.14,22.03,,-1.06,,, NC,, NC
CH5-2,2017-02-07T06:10:00Z,-79.54,54.26,7.14,22.03,,-1.07,,, NC,, NC
CH5-2,2017-02-07T06:20:00Z,-79.54,54.26,7.14,21.95,,-1.07,,, NC,, NC
CH5-2,2017-02-07T06:30:00Z,-79.54,54.26,7.14,22.04,,-1.07,,, NC,, NC
CH5-2,2017-02-07T06:40:00Z,-79.54,54.26,7.14,22.21,,-1.07,,, NC,, NC
CH5-2,2017-02-07T06:50:00Z,-79.54,54.26,7.14,22.77,,-1.08,,, NC,, NC
CH5-2,2017-02-07T07:00:00Z,-79.54,54.26,7.14,22.90,,-1.09,,, NC,, NC
CH5-2,2017-02-07T07:10:00Z,-79.54,54.26,7.14,23.02,,-1.09,,, NC,, NC
CH5-2,2017-02-07T07:20:00Z,-79.54,54.26,7.14,23.11,,-1.09,,, NC,, NC
CH5-2,2017-02-07T07:30:00Z,-79.54,54.26,7.14,23.20,,-1.10,,, NC,, NC
CH5-2,2017-02-07T07:40:00Z,-79.54,54.26,7.14,23.29,,-1.10,,, NC,, NC
CH5-2,2017-02-07T07:50:00Z,-79.54,54.26,7.14,23.26,,-1.10,,, NC,, NC
CH5-2,2017-02-07T08:00:00Z,-79.54,54.26,7.14,23.19,,-1.10,,, NC,, NC
CH5-2,2017-02-07T08:10:00Z,-79.54,54.26,7.14,23.17,,-1.10,,, NC,, NC
CH5-2,2017-02-07T08:20:00Z,-79.54,54.26,7.14,23.17,,-1.10,,, NC,, NC
CH5-2,2017-02-07T08:30:00Z,-79.54,54.26,7.14,23.20,,-1.10,,, NC,, NC
CH5-2,2017-02-07T08:40:00Z,-79.54,54.26,7.14,23.27,,-1.10,,, NC,, NC
CH5-2,2017-02-07T08:50:00Z,-79.54,54.26,7.14,23.24,,-1.09,,, NC,, NC
CH5-2,2017-02-07T09:00:00Z,-79.54,54.26,7.14,23.33,,-1.10,,, NC,, NC
CH5-2,2017-02-07T09:10:00Z,-79.54,54.26,7.14,23.21,,-1.10,,, NC,, NC
CH5-2,2017-02-07T09:20:00Z,-79.54,54.26,7.14,23.17,,-1.10,,, NC,, NC
CH5-2,2017-02-07T09:30:00Z,-79.54,54.26,7.14,22.94,,-1.09,,, NC,, NC
CH5-2,2017-02-07T09:40:00Z,-79.54,54.26,7.14,22.18,,-1.08,,, NC,, NC
CH5-2,2017-02-07T09:50:00Z,-79.54,54.26,7.14,22.39,,-1.08,,, NC,, NC
CH5-2,2017-02-07T10:00:00Z,-79.54,54.26,7.14,21.26,,-1.06,,, NC,, NC
CH5-2,2017-02-07T10:10:00Z,-79.54,54.26,7.14,21.22,,-1.05,,, NC,, NC
CH5-2,2017-02-07T10:20:00Z,-79.54,54.26,7.14,21.35,,-1.04,,, NC,, NC
CH5-2,2017-02-07T10:30:00Z,-79.54,54.26,7.14,21.24,,-1.03,,, NC,, NC
CH5-2,2017-02-07T10:40:00Z,-79.54,54.26,7.14,21.51,,-1.04,,, NC,, NC
CH5-2,2017-02-07T10:50:00Z,-79.54,54.26,7.14,21.45,,-1.04,,, NC,, NC
CH5-2,2017-02-07T11:00:00Z,-79.54,54.26,7.14,21.61,,-1.05,,, NC,, NC
CH5-2,2017-02-07T11:10:00Z,-79.54,54.26,7.14,21.59,,-1.05,,, NC,, NC
CH5-2,2017-02-07T11:20:00Z,-79.54,54.26,7.14,21.74,,-1.05,,, NC,, NC
CH5-2,2017-02-07T11:30:00Z,-79.54,54.26,7.14,21.89,,-1.06,,, NC,, NC
CH5-2,2017-02-07T11:40:00Z,-79.54,54.26,7.14,21.92,,-1.06,,, NC,, NC
CH5-2,2017-02-07T11:50:00Z,-79.54,54.26,7.14,22.14,,-1.06,,, NC,, NC
CH5-2,2017-02-07T12:00:00Z,-79.54,54.26,7.14,22.15,,-1.06,,, NC,, NC
CH5-2,2017-02-07T12:10:00Z,-79.54,54.26,7.14,22.13,,-1.06,,, NC,, NC
CH5-2,2017-02-07T12:20:00Z,-79.54,54.26,7.14,21.92,,-1.05,,, NC,, NC
CH5-2,2017-02-07T12:30:00Z,-79.54,54.26,7.14,21.75,,-1.04,,, NC,, NC
CH5-2,2017-02-07T12:40:00Z,-79.54,54.26,7.14,21.66,,-1.04,,, NC,, NC
CH5-2,2017-02-07T12:50:00Z,-79.54,54.26,7.14,21.57,,-1.04,,, NC,, NC
CH5-2,2017-02-07T13:00:00Z,-79.54,54.26,7.14,21.26,,-1.03,,, NC,, NC
CH5-2,2017-02-07T13:10:00Z,-79.54,54.26,7.14,20.88,,-1.03,,, NC,, NC
CH5-2,2017-02-07T13:20:00Z,-79.54,54.26,7.14,20.75,,-1.03,,, NC,, NC
CH5-2,2017-02-07T13:30:00Z,-79.54,54.26,7.14,20.62,,-1.02,,, NC,, NC
CH5-2,2017-02-07T13:40:00Z,-79.54,54.26,7.14,20.48,,-1.01,,, NC,, NC
CH5-2,2017-02-07T13:50:00Z,-79.54,54.26,7.14,20.50,,-1.01,,, NC,, NC
CH5-2,2017-02-07T14:00:00Z,-79.54,54.26,7.14,20.48,,-1.01,,, NC,, NC
CH5-2,2017-02-07T14:10:00Z,-79.54,54.26,7.14,20.45,,-1.01,,, NC,, NC
CH5-2,2017-02-07T14:20:00Z,-79.54,54.26,7.14,20.43,,-1.01,,, NC,, NC
CH5-2,2017-02-07T14:30:00Z,-79.54,54.26,7.14,20.45,,-1.01,,, NC,, NC
CH5-2,2017-02-07T14:40:00Z,-79.54,54.26,7.14,20.43,,-1.01,,, NC,, NC
CH5-2,2017-02-07T14:50:00Z,-79.54,54.26,7.14,20.33,,-1.00,,, NC,, NC
CH5-2,2017-02-07T15:00:00Z,-79.54,54.26,7.14,20.22,,-1.00,,, NC,, NC
CH5-2,2017-02-07T15:10:00Z,-79.54,54.26,7.14,20.07,,-0.99,,, NC,, NC
CH5-2,2017-02-07T15:20:00Z,-79.54,54.26,7.14,19.96,,-0.99,,, NC,, NC
CH5-2,2017-02-07T15:30:00Z,-79.54,54.26,7.14,19.89,,-0.99,,, NC,, NC
CH5-2,2017-02-07T15:40:00Z,-79.54,54.26,7.14,19.83,,-0.99,,, NC,, NC
CH5-2,2017-02-07T15:50:00Z,-79.54,54.26,7.14,19.82,,-0.99,,, NC,, NC
CH5-2,2017-02-07T16:00:00Z,-79.54,54.26,7.14,19.83,,-0.99,,, NC,, NC
CH5-2,2017-02-07T16:10:00Z,-79.54,54.26,7.14,19.83,,-0.99,,, NC,, NC
CH5-2,2017-02-07T16:20:00Z,-79.54,54.26,7.14,19.83,,-0.99,,, NC,, NC
CH5-2,2017-02-07T16:30:00Z,-79.54,54.26,7.14,19.84,,-0.99,,, NC,, NC
CH5-2,2017-02-07T16:40:00Z,-79.54,54.26,7.14,19.82,,-0.99,,, NC,, NC
CH5-2,2017-02-07T16:50:00Z,-79.54,54.26,7.14,19.84,,-0.99,,, NC,, NC
CH5-2,2017-02-07T17:00:00Z,-79.54,54.26,7.14,19.84,,-1.00,,, NC,, NC
CH5-2,2017-02-07T17:10:00Z,-79.54,54.26,7.14,20.18,,-1.00,,, NC,, NC
CH5-2,2017-02-07T17:20:00Z,-79.54,54.26,7.14,20.32,,-1.00,,, NC,, NC
CH5-2,2017-02-07T17:30:00Z,-79.54,54.26,7.14,20.30,,-1.00,,, NC,, NC
CH5-2,2017-02-07T17:40:00Z,-79.54,54.26,7.14,20.18,,-1.00,,, NC,, NC
CH5-2,2017-02-07T17:50:00Z,-79.54,54.26,7.14,20.18,,-1.01,,, NC,, NC
CH5-2,2017-02-07T18:00:00Z,-79.54,54.26,7.14,15.52,,-1.00,,, NC,, NC
CH5-2,2017-02-07T18:10:00Z,-79.54,54.26,7.14,16.05,,-1.00,,, NC,, NC
CH5-2,2017-02-07T18:20:00Z,-79.54,54.26,7.14,19.95,,-1.01,,, NC,, NC
CH5-2,2017-02-07T18:30:00Z,-79.54,54.26,7.14,20.19,,-1.01,,, NC,, NC
CH5-2,2017-02-07T18:40:00Z,-79.54,54.26,7.14,21.45,,-1.04,,, NC,, NC
CH5-2,2017-02-07T18:50:00Z,-79.54,54.26,7.14,21.88,,-1.05,,, NC,, NC
CH5-2,2017-02-07T19:00:00Z,-79.54,54.26,7.14,21.82,,-1.05,,, NC,, NC
CH5-2,2017-02-07T19:10:00Z,-79.54,54.26,7.14,21.74,,-1.05,,, NC,, NC
CH5-2,2017-02-07T19:20:00Z,-79.54,54.26,7.14,21.80,,-1.05,,, NC,, NC
CH5-2,2017-02-07T19:30:00Z,-79.54,54.26,7.14,21.99,,-1.06,,, NC,, NC
CH5-2,2017-02-07T19:40:00Z,-79.54,54.26,7.14,22.12,,-1.07,,, NC,, NC
CH5-2,2017-02-07T19:50:00Z,-79.54,54.26,7.14,22.25,,-1.07,,, NC,, NC
CH5-2,2017-02-07T20:00:00Z,-79.54,54.26,7.14,22.51,,-1.08,,, NC,, NC
CH5-2,2017-02-07T20:10:00Z,-79.54,54.26,7.14,22.74,,-1.08,,, NC,, NC
CH5-2,2017-02-07T20:20:00Z,-79.54,54.26,7.14,22.87,,-1.09,,, NC,, NC
CH5-2,2017-02-07T20:30:00Z,-79.54,54.26,7.14,22.99,,-1.09,,, NC,, NC
CH5-2,2017-02-07T20:40:00Z,-79.54,54.26,7.14,22.99,,-1.09,,, NC,, NC
CH5-2,2017-02-07T20:50:00Z,-79.54,54.26,7.14,23.02,,-1.09,,, NC,, NC
CH5-2,2017-02-07T21:00:00Z,-79.54,54.26,7.14,23.03,,-1.09,,, NC,, NC
CH5-2,2017-02-07T21:10:00Z,-79.54,54.26,7.14,23.03,,-1.09,,, NC,, NC
CH5-2,2017-02-07T21:20:00Z,-79.54,54.26,7.14,23.06,,-1.09,,, NC,, NC
CH5-2,2017-02-07T21:30:00Z,-79.54,54.26,7.14,23.12,,-1.09,,, NC,, NC
CH5-2,2017-02-07T21:40:00Z,-79.54,54.26,7.14,23.18,,-1.09,,, NC,, NC
CH5-2,2017-02-07T21:50:00Z,-79.54,54.26,7.14,23.16,,-1.09,,, NC,, NC
CH5-2,2017-02-07T22:00:00Z,-79.54,54.26,7.14,23.17,,-1.09,,, NC,, NC
CH5-2,2017-02-07T22:10:00Z,-79.54,54.26,7.14,23.21,,-1.09,,, NC,, NC
CH5-2,2017-02-07T22:20:00Z,-79.54,54.26,7.14,23.21,,-1.09,,, NC,, NC
CH5-2,2017-02-07T22:30:00Z,-79.54,54.26,7.14,23.21,,-1.09,,, NC,, NC
CH5-2,2017-02-07T22:40:00Z,-79.54,54.26,7.14,23.19,,-1.09,,, NC,, NC
CH5-2,2017-02-07T22:50:00Z,-79.54,54.26,7.14,23.08,,-1.09,,, NC,, NC
CH5-2,2017-02-07T23:00:00Z,-79.54,54.26,7.14,22.91,,-1.09,,, NC,, NC
CH5-2,2017-02-07T23:10:00Z,-79.54,54.26,7.14,22.62,,-1.09,,, NC,, NC
CH5-2,2017-02-07T23:20:00Z,-79.54,54.26,7.14,22.12,,-1.09,,, NC,, NC
CH5-2,2017-02-07T23:30:00Z,-79.54,54.26,7.14,20.39,,-1.04,,, NC,, NC
CH5-2,2017-02-07T23:40:00Z,-79.54,54.26,7.14,20.20,,-1.02,,, NC,, NC
CH5-2,2017-02-07T23:50:00Z,-79.54,54.26,7.14,19.96,,-1.01,,, NC,, NC
CH5-2,2017-02-08T00:00:00Z,-79.54,54.26,7.14,19.91,,-1.01,,, NC,, NC
CH5-2,2017-02-08T00:10:00Z,-79.54,54.26,7.14,19.90,,-1.01,,, NC,, NC
CH5-2,2017-02-08T00:20:00Z,-79.54,54.26,7.14,19.90,,-1.01,,, NC,, NC
CH5-2,2017-02-08T00:30:00Z,-79.54,54.26,7.14,19.89,,-1.02,,, NC,, NC
CH5-2,2017-02-08T00:40:00Z,-79.54,54.26,7.14,20.00,,-1.02,,, NC,, NC
CH5-2,2017-02-08T00:50:00Z,-79.54,54.26,7.14,19.98,,-1.01,,, NC,, NC
CH5-2,2017-02-08T01:00:00Z,-79.54,54.26,7.14,20.04,,-1.01,,, NC,, NC
CH5-2,2017-02-08T01:10:00Z,-79.54,54.26,7.14,20.03,,-1.01,,, NC,, NC
CH5-2,2017-02-08T01:20:00Z,-79.54,54.26,7.14,20.10,,-1.01,,, NC,, NC
CH5-2,2017-02-08T01:30:00Z,-79.54,54.26,7.14,20.24,,-1.01,,, NC,, NC
CH5-2,2017-02-08T01:40:00Z,-79.54,54.26,7.14,20.35,,-1.02,,, NC,, NC
CH5-2,2017-02-08T01:50:00Z,-79.54,54.26,7.14,20.23,,-1.01,,, NC,, NC
CH5-2,2017-02-08T02:00:00Z,-79.54,54.26,7.14,19.78,,-1.00,,, NC,, NC
CH5-2,2017-02-08T02:10:00Z,-79.54,54.26,7.14,19.74,,-1.00,,, NC,, NC
CH5-2,2017-02-08T02:20:00Z,-79.54,54.26,7.14,19.52,,-0.99,,, NC,, NC
CH5-2,2017-02-08T02:30:00Z,-79.54,54.26,7.14,19.33,,-0.99,,, NC,, NC
CH5-2,2017-02-08T02:40:00Z,-79.54,54.26,7.14,19.29,,-0.98,,, NC,, NC
CH5-2,2017-02-08T02:50:00Z,-79.54,54.26,7.14,19.27,,-0.99,,, NC,, NC
CH5-2,2017-02-08T03:00:00Z,-79.54,54.26,7.14,19.24,,-0.98,,, NC,, NC
CH5-2,2017-02-08T03:10:00Z,-79.54,54.26,7.14,19.14,,-0.98,,, NC,, NC
CH5-2,2017-02-08T03:20:00Z,-79.54,54.26,7.14,19.84,,-1.00,,, NC,, NC
CH5-2,2017-02-08T03:30:00Z,-79.54,54.26,7.14,19.90,,-1.01,,, NC,, NC
CH5-2,2017-02-08T03:40:00Z,-79.54,54.26,7.14,19.77,,-1.00,,, NC,, NC
CH5-2,2017-02-08T03:50:00Z,-79.54,54.26,7.14,19.63,,-1.00,,, NC,, NC
CH5-2,2017-02-08T04:00:00Z,-79.54,54.26,7.14,19.54,,-1.00,,, NC,, NC
CH5-2,2017-02-08T04:10:00Z,-79.54,54.26,7.14,19.46,,-1.00,,, NC,, NC
CH5-2,2017-02-08T04:20:00Z,-79.54,54.26,7.14,19.29,,-1.00,,, NC,, NC
CH5-2,2017-02-08T04:30:00Z,-79.54,54.26,7.14,19.41,,-1.00,,, NC,, NC
CH5-2,2017-02-08T04:40:00Z,-79.54,54.26,7.14,19.40,,-1.00,,, NC,, NC
CH5-2,2017-02-08T04:50:00Z,-79.54,54.26,7.14,19.26,,-1.00,,, NC,, NC
CH5-2,2017-02-08T05:00:00Z,-79.54,54.26,7.14,19.30,,-1.00,,, NC,, NC
CH5-2,2017-02-08T05:10:00Z,-79.54,54.26,7.14,19.41,,-1.00,,, NC,, NC
CH5-2,2017-02-08T05:20:00Z,-79.54,54.26,7.14,19.52,,-1.00,,, NC,, NC
CH5-2,2017-02-08T05:30:00Z,-79.54,54.26,7.14,19.68,,-1.00,,, NC,, NC
CH5-2,2017-02-08T05:40:00Z,-79.54,54.26,7.14,20.08,,-1.01,,, NC,, NC
CH5-2,2017-02-08T05:50:00Z,-79.54,54.26,7.14,20.01,,-1.01,,, NC,, NC
CH5-2,2017-02-08T06:00:00Z,-79.54,54.26,7.14,20.03,,-1.02,,, NC,, NC
CH5-2,2017-02-08T06:10:00Z,-79.54,54.26,7.14,20.60,,-1.03,,, NC,, NC
CH5-2,2017-02-08T06:20:00Z,-79.54,54.26,7.14,20.80,,-1.04,,, NC,, NC
CH5-2,2017-02-08T06:30:00Z,-79.54,54.26,7.14,20.73,,-1.04,,, NC,, NC
CH5-2,2017-02-08T06:40:00Z,-79.54,54.26,7.14,20.68,,-1.04,,, NC,, NC
CH5-2,2017-02-08T06:50:00Z,-79.54,54.26,7.14,20.84,,-1.04,,, NC,, NC
CH5-2,2017-02-08T07:00:00Z,-79.54,54.26,7.14,21.16,,-1.04,,, NC,, NC
CH5-2,2017-02-08T07:10:00Z,-79.54,54.26,7.14,21.92,,-1.05,,, NC,, NC
CH5-2,2017-02-08T07:20:00Z,-79.54,54.26,7.14,21.69,,-1.06,,, NC,, NC
CH5-2,2017-02-08T07:30:00Z,-79.54,54.26,7.14,21.95,,-1.06,,, NC,, NC
CH5-2,2017-02-08T07:40:00Z,-79.54,54.26,7.14,22.59,,-1.07,,, NC,, NC
CH5-2,2017-02-08T07:50:00Z,-79.54,54.26,7.14,22.57,,-1.07,,, NC,, NC
CH5-2,2017-02-08T08:00:00Z,-79.54,54.26,7.14,22.70,,-1.08,,, NC,, NC
CH5-2,2017-02-08T08:10:00Z,-79.54,54.26,7.14,22.94,,-1.08,,, NC,, NC
CH5-2,2017-02-08T08:20:00Z,-79.54,54.26,7.14,23.24,,-1.09,,, NC,, NC
CH5-2,2017-02-08T08:30:00Z,-79.54,54.26,7.14,23.26,,-1.09,,, NC,, NC
CH5-2,2017-02-08T08:40:00Z,-79.54,54.26,7.14,23.25,,-1.09,,, NC,, NC
CH5-2,2017-02-08T08:50:00Z,-79.54,54.26,7.14,23.25,,-1.09,,, NC,, NC
CH5-2,2017-02-08T09:00:00Z,-79.54,54.26,7.14,23.20,,-1.09,,, NC,, NC
CH5-2,2017-02-08T09:10:00Z,-79.54,54.26,7.14,23.19,,-1.09,,, NC,, NC
CH5-2,2017-02-08T09:20:00Z,-79.54,54.26,7.14,23.21,,-1.09,,, NC,, NC
CH5-2,2017-02-08T09:30:00Z,-79.54,54.26,7.14,23.25,,-1.09,,, NC,, NC
CH5-2,2017-02-08T09:40:00Z,-79.54,54.26,7.14,23.25,,-1.09,,, NC,, NC
CH5-2,2017-02-08T09:50:00Z,-79.54,54.26,7.14,23.31,,-1.09,,, NC,, NC
CH5-2,2017-02-08T10:00:00Z,-79.54,54.26,7.14,23.36,,-1.09,,, NC,, NC
CH5-2,2017-02-08T10:10:00Z,-79.54,54.26,7.14,23.38,,-1.09,,, NC,, NC
CH5-2,2017-02-08T10:20:00Z,-79.54,54.26,7.14,23.38,,-1.09,,, NC,, NC
CH5-2,2017-02-08T10:30:00Z,-79.54,54.26,7.14,23.37,,-1.09,,, NC,, NC
CH5-2,2017-02-08T10:40:00Z,-79.54,54.26,7.14,23.23,,-1.09,,, NC,, NC
CH5-2,2017-02-08T10:50:00Z,-79.54,54.26,7.14,23.19,,-1.09,,, NC,, NC
CH5-2,2017-02-08T11:00:00Z,-79.54,54.26,7.14,22.28,,-1.07,,, NC,, NC
CH5-2,2017-02-08T11:10:00Z,-79.54,54.26,7.14,22.72,,-1.08,,, NC,, NC
CH5-2,2017-02-08T11:20:00Z,-79.54,54.26,7.14,21.57,,-1.05,,, NC,, NC
CH5-2,2017-02-08T11:30:00Z,-79.54,54.26,7.14,21.29,,-1.03,,, NC,, NC
CH5-2,2017-02-08T11:40:00Z,-79.54,54.26,7.14,21.48,,-1.04,,, NC,, NC
CH5-2,2017-02-08T11:50:00Z,-79.54,54.26,7.14,21.59,,-1.03,,, NC,, NC
CH5-2,2017-02-08T12:00:00Z,-79.54,54.26,7.14,21.82,,-1.04,,, NC,, NC
CH5-2,2017-02-08T12:10:00Z,-79.54,54.26,7.14,22.05,,-1.04,,, NC,, NC
CH5-2,2017-02-08T12:20:00Z,-79.54,54.26,7.14,22.12,,-1.05,,, NC,, NC
CH5-2,2017-02-08T12:30:00Z,-79.54,54.26,7.14,22.14,,-1.05,,, NC,, NC
CH5-2,2017-02-08T12:40:00Z,-79.54,54.26,7.14,22.17,,-1.05,,, NC,, NC
CH5-2,2017-02-08T12:50:00Z,-79.54,54.26,7.14,22.33,,-1.06,,, NC,, NC
CH5-2,2017-02-08T13:00:00Z,-79.54,54.26,7.14,22.48,,-1.06,,, NC,, NC
CH5-2,2017-02-08T13:10:00Z,-79.54,54.26,7.14,22.50,,-1.06,,, NC,, NC
CH5-2,2017-02-08T13:20:00Z,-79.54,54.26,7.14,22.47,,-1.06,,, NC,, NC
CH5-2,2017-02-08T13:30:00Z,-79.54,54.26,7.14,22.42,,-1.06,,, NC,, NC
CH5-2,2017-02-08T13:40:00Z,-79.54,54.26,7.14,22.31,,-1.06,,, NC,, NC
CH5-2,2017-02-08T13:50:00Z,-79.54,54.26,7.14,22.16,,-1.05,,, NC,, NC
CH5-2,2017-02-08T14:00:00Z,-79.54,54.26,7.14,22.05,,-1.05,,, NC,, NC
CH5-2,2017-02-08T14:10:00Z,-79.54,54.26,7.14,21.68,,-1.04,,, NC,, NC
CH5-2,2017-02-08T14:20:00Z,-79.54,54.26,7.14,21.34,,-1.03,,, NC,, NC
CH5-2,2017-02-08T14:30:00Z,-79.54,54.26,7.14,21.16,,-1.03,,, NC,, NC
CH5-2,2017-02-08T14:40:00Z,-79.54,54.26,7.14,20.82,,-1.02,,, NC,, NC
CH5-2,2017-02-08T14:50:00Z,-79.54,54.26,7.14,20.32,,-1.01,,, NC,, NC
CH5-2,2017-02-08T15:00:00Z,-79.54,54.26,7.14,20.20,,-1.00,,, NC,, NC
CH5-2,2017-02-08T15:10:00Z,-79.54,54.26,7.14,20.19,,-1.00,,, NC,, NC
CH5-2,2017-02-08T15:20:00Z,-79.54,54.26,7.14,20.20,,-0.99,,, NC,, NC
CH5-2,2017-02-08T15:30:00Z,-79.54,54.26,7.14,20.19,,-0.99,,, NC,, NC
CH5-2,2017-02-08T15:40:00Z,-79.54,54.26,7.14,20.10,,-0.99,,, NC,, NC
CH5-2,2017-02-08T15:50:00Z,-79.54,54.26,7.14,20.04,,-0.99,,, NC,, NC
CH5-2,2017-02-08T16:00:00Z,-79.54,54.26,7.14,20.01,,-0.99,,, NC,, NC
CH5-2,2017-02-08T16:10:00Z,-79.54,54.26,7.14,19.96,,-0.98,,, NC,, NC
CH5-2,2017-02-08T16:20:00Z,-79.54,54.26,7.14,19.90,,-0.98,,, NC,, NC
CH5-2,2017-02-08T16:30:00Z,-79.54,54.26,7.14,19.88,,-0.98,,, NC,, NC
CH5-2,2017-02-08T16:40:00Z,-79.54,54.26,7.14,19.88,,-0.98,,, NC,, NC
CH5-2,2017-02-08T16:50:00Z,-79.54,54.26,7.14,20.10,,-0.99,,, NC,, NC
CH5-2,2017-02-08T17:00:00Z,-79.54,54.26,7.14,20.34,,-0.99,,, NC,, NC
CH5-2,2017-02-08T17:10:00Z,-79.54,54.26,7.14,20.36,,-0.99,,, NC,, NC
CH5-2,2017-02-08T17:20:00Z,-79.54,54.26,7.14,20.18,,-0.99,,, NC,, NC
CH5-2,2017-02-08T17:30:00Z,-79.54,54.26,7.14,20.09,,-0.98,,, NC,, NC
CH5-2,2017-02-08T17:40:00Z,-79.54,54.26,7.14,20.96,,-1.02,,, NC,, NC
CH5-2,2017-02-08T17:50:00Z,-79.54,54.26,7.14,21.07,,-1.02,,, NC,, NC
CH5-2,2017-02-08T18:00:00Z,-79.54,54.26,7.14,21.13,,-1.02,,, NC,, NC
CH5-2,2017-02-08T18:10:00Z,-79.54,54.26,7.14,21.17,,-1.02,,, NC,, NC
CH5-2,2017-02-08T18:20:00Z,-79.54,54.26,7.14,21.26,,-1.03,,, NC,, NC
CH5-2,2017-02-08T18:30:00Z,-79.54,54.26,7.14,21.51,,-1.03,,, NC,, NC
CH5-2,2017-02-08T18:40:00Z,-79.54,54.26,7.14,22.44,,-1.05,,, NC,, NC
CH5-2,2017-02-08T18:50:00Z,-79.54,54.26,7.14,22.56,,-1.06,,, NC,, NC
CH5-2,2017-02-08T19:00:00Z,-79.54,54.26,7.14,21.55,,-1.06,,, NC,, NC
CH5-2,2017-02-08T19:10:00Z,-79.54,54.26,7.14,21.94,,-1.06,,, NC,, NC
CH5-2,2017-02-08T19:20:00Z,-79.54,54.26,7.14,22.31,,-1.06,,, NC,, NC
CH5-2,2017-02-08T19:30:00Z,-79.54,54.26,7.14,22.85,,-1.07,,, NC,, NC
CH5-2,2017-02-08T19:40:00Z,-79.54,54.26,7.14,22.97,,-1.07,,, NC,, NC
CH5-2,2017-02-08T19:50:00Z,-79.54,54.26,7.14,23.08,,-1.08,,, NC,, NC
CH5-2,2017-02-08T20:00:00Z,-79.54,54.26,7.14,23.15,,-1.08,,, NC,, NC
CH5-2,2017-02-08T20:10:00Z,-79.54,54.26,7.14,23.16,,-1.08,,, NC,, NC
CH5-2,2017-02-08T20:20:00Z,-79.54,54.26,7.14,23.06,,-1.08,,, NC,, NC
CH5-2,2017-02-08T20:30:00Z,-79.54,54.26,7.14,22.89,,-1.07,,, NC,, NC
CH5-2,2017-02-08T20:40:00Z,-79.54,54.26,7.14,22.91,,-1.07,,, NC,, NC
CH5-2,2017-02-08T20:50:00Z,-79.54,54.26,7.14,23.05,,-1.08,,, NC,, NC
CH5-2,2017-02-08T21:00:00Z,-79.54,54.26,7.14,23.21,,-1.08,,, NC,, NC
CH5-2,2017-02-08T21:10:00Z,-79.54,54.26,7.14,23.27,,-1.08,,, NC,, NC